Location: Mentone
(34.5413°N, 85.5351°W)
Time: 04:11:37
(UTC-05:00)

Cosmos 2150 Rocket - Visible Passes

Search period start: 24 May 2015 00:00
Search period end: 03 June 2015 00:00
Orbit: 749 x 809 km, 74.0° (Epoch: 23 May)

Date Brightness Start Highest point End Pass type
(mag) Time Alt. Az. Time Alt. Az. Time Alt. Az.
24 May 5.7 00:59:34 29° NE 00:59:34 29° NE 01:02:14 10° NNE visible
24 May 6.0 02:40:03 16° WNW 02:40:03 16° WNW 02:43:03 10° NNW visible
25 May 6.1 00:26:21 19° NE 00:26:21 19° NE 00:28:08 10° NE visible
25 May 5.6 02:06:50 25° NW 02:06:50 25° NW 02:10:14 10° N visible
25 May 6.5 23:53:06 12° ENE 23:53:06 12° ENE 23:53:34 10° NE visible
26 May 5.3 01:33:34 34° NNW 01:33:34 34° NNW 01:37:00 10° N visible
27 May 5.3 01:00:17 38° N 01:00:17 38° N 01:03:31 10° NNE visible
28 May 5.5 00:27:00 32° NNE 00:27:00 32° NNE 00:29:49 10° NNE visible
28 May 6.3 02:07:28 13° WNW 02:07:34 13° WNW 02:09:43 10° NNW visible
28 May 5.8 23:53:39 23° NE 23:53:39 23° NE 23:55:52 10° NNE visible
29 May 6.0 01:34:07 20° NW 01:34:07 20° NW 01:37:20 10° NNW visible
29 May 6.2 23:20:17 16° ENE 23:20:17 16° ENE 23:21:36 10° NE visible
30 May 5.6 01:00:45 29° NW 01:00:45 29° NW 01:04:17 10° N visible
31 May 5.2 00:27:21 39° NNW 00:27:21 39° NNW 00:30:55 10° N visible
31 May 5.1 23:53:54 41° NNE 23:53:54 41° NNE 23:57:19 10° NNE visible
01 Jun 5.2 23:20:25 33° NE 23:20:25 33° NE 23:23:31 10° NNE visible
02 Jun 6.2 01:00:53 16° WNW 01:01:08 16° WNW 01:04:16 10° NNW visible
02 Jun 5.6 22:46:53 24° ENE 22:46:53 24° ENE 22:49:27 10° NE visible
